(269436) = 2009 SP174

Discovered at Purple Mountain on 2009-09-18 by PMO NEO Survey Program.

Orbit

Orbit type: Main Belt

Note: WebGL enabled browser required.

epoch2024-03-31.0
epoch JD2460400.5
perihelion date2023-02-23.91461
perihelion JD2459999.41461
argument of perihelion (°)213.12432
ascending node (°)165.35123
inclination (°)4.28530
eccentricity0.1392021
perihelion distance (AU)1.9209977
Tisserand w.r.t. Jupiter3.6
ΔV w.r.t. Earth (km/sec)8.6
semimajor axis (AU)2.2316478
mean anomaly (°)118.57747
mean daily motion (°/day)0.29564150
aphelion distance (AU)2.542
period (years)3.33
P-vector [x]0.94807263
P-vector [y]0.30563631
P-vector [z]0.08800416
Q-vector [x]-0.31749204
Q-vector [y]0.89300848
Q-vector [z]0.31895870
absolute magnitude17.7
phase slope0.15
uncertainty0
referenceMPEC 2024-E73
observations used256
oppositions15
arc length (days)8413
first opposition used2001
last opposition used2024
residual rms (arc-secs)0.77
perturbers coarse indicatorM-v
perturbers precise indicator003Ek
first observation date used2001-02-21.0
last observation date used2024-03-05.0
computer nameMPCLINUX
JD of orbit computation2456760.708162
perihelion JD uncertainty (days)5.3069E-05
argument of perihelion uncertainty (°)5.2574E-05
ascending node uncertainty (°)4.9411E-05
inclination uncertainty (°)7.7309E-06
eccentricity uncertainty 7.4111E-08
perihelion distance uncertainty (AU)1.6289E-07
Minimum Orbit Intersection Distances (in AU)
for orbit epoch: 2460400.5, reference: E2024-E73
Mercury1.5737
Venus1.19577
Earth0.92419
Mars0.49479
Jupiter2.90994
Saturn6.8383
Uranus15.9392
Neptune27.8796

Observations

266 total observations over interval: 2001 02 21.43068 – 2024 03 05.154974
These data are available for download (format description).

Date (UT) J2000 RA J2000 Dec Magn Location Ref
2001 02 21.43068 12 10 03.78 -00 22 10.9 21.5 V 691 – Steward Observatory, Kitt Peak-Spacewatch MPS 297891
2001 02 21.45187 12 10 02.89 -00 22 01.6 22.0 V 691 – Steward Observatory, Kitt Peak-Spacewatch MPS 297891
2001 02 21.47288 12 10 02.07 -00 21 54.2 22.1 V 691 – Steward Observatory, Kitt Peak-Spacewatch MPS 297891
2001 04 16.137010 11 26 15.928 +05 50 49.44 21.48 V 645 – Apache Point-Sloan Digital Sky Survey MPS 297891
2001 04 16.140482 11 26 15.818 +05 50 50.26 22.36   645 – Apache Point-Sloan Digital Sky Survey MPS 297891
2002 07 08.27770 20 23 22.68 -13 11 00.3 20.6   644 – Palomar Mountain/NEAT MPS 297891
2002 07 08.35783 20 23 18.67 -13 11 15.6 20.4   644 – Palomar Mountain/NEAT MPS 297891
2002 07 08.42172 20 23 15.44 -13 11 27.7 20.5   644 – Palomar Mountain/NEAT MPS 297891
2004 01 31.28601 09 20 43.74 +11 38 04.3 21.0 V 691 – Steward Observatory, Kitt Peak-Spacewatch MPS 297891
2004 01 31.31802 09 20 41.68 +11 38 16.7 21.0 V 691 – Steward Observatory, Kitt Peak-Spacewatch MPS 297891
2004 01 31.34725 09 20 39.79 +11 38 28.7 21.5 V 691 – Steward Observatory, Kitt Peak-Spacewatch MPS 297891
2008 04 01.29269 14 25 30.26 -09 37 05.3 21.2 V 691 – Steward Observatory, Kitt Peak-Spacewatch MPS 297891
2008 04 01.31032 14 25 29.46 -09 36 59.1 21.1 V 691 – Steward Observatory, Kitt Peak-Spacewatch MPS 297891
2008 04 01.32793 14 25 28.68 -09 36 52.9 21.1 V 691 – Steward Observatory, Kitt Peak-Spacewatch MPS 297891
2008 04 28.26580 14 01 11.13 -06 43 03.5 20.9 V G96 – Mt. Lemmon Survey MPS 297891
2008 04 28.27209 14 01 10.77 -06 43 01.4 20.9 V G96 – Mt. Lemmon Survey MPS 297891
2008 04 28.27819 14 01 10.38 -06 42 59.2 21.0 V G96 – Mt. Lemmon Survey MPS 297891
2008 04 28.28434 14 01 10.02 -06 42 57.0 20.8 V G96 – Mt. Lemmon Survey MPS 297891
2009 09 14.31915 01 03 14.78 +03 52 04.0   704 – Lincoln Laboratory ETS, New Mexico MPS 407478
2009 09 14.33083 01 03 14.37 +03 51 59.1   704 – Lincoln Laboratory ETS, New Mexico MPS 407478
2009 09 14.34252 01 03 13.97 +03 51 53.3   704 – Lincoln Laboratory ETS, New Mexico MPS 407478
2009 09 14.35420 01 03 13.61 +03 51 47.9   704 – Lincoln Laboratory ETS, New Mexico MPS 407478
2009 09 18.72583 01 00 48.12 +03 17 47.6 19.8 R D29 – Purple Mountain Observatory, XuYi Station MPS 297131
2009 09 18.74130 01 00 47.48 +03 17 39.6 20.0 R D29 – Purple Mountain Observatory, XuYi Station MPS 297131
2009 09 18.75500 01 00 46.96 +03 17 32.1 19.5 R D29 – Purple Mountain Observatory, XuYi Station MPS 297131
2009 09 18.76829 01 00 46.39 +03 17 26.0 19.8 R D29 – Purple Mountain Observatory, XuYi Station MPS 297131
2009 09 25.23553 00 56 22.27 +02 22 36.3 19.6 V 691 – Steward Observatory, Kitt Peak-Spacewatch MPS 297131
2009 09 25.25325 00 56 21.43 +02 22 26.5 19.4 V 691 – Steward Observatory, Kitt Peak-Spacewatch MPS 297131
2009 09 25.27092 00 56 20.60 +02 22 17.6 19.5 V 691 – Steward Observatory, Kitt Peak-Spacewatch MPS 297131
2009 09 28.17536 00 54 07.65 +01 56 37.6 19.5 V 691 – Steward Observatory, Kitt Peak-Spacewatch MPS 297891
2009 09 28.19299 00 54 06.80 +01 56 28.3 19.4 V 691 – Steward Observatory, Kitt Peak-Spacewatch MPS 297891
2009 09 28.21060 00 54 05.92 +01 56 18.8 19.4 V 691 – Steward Observatory, Kitt Peak-Spacewatch MPS 297891
2009 09 29.22543 00 53 17.87 +01 47 16.9 19.6 V 691 – Steward Observatory, Kitt Peak-Spacewatch MPS 297891
2009 09 29.24305 00 53 16.98 +01 47 07.4 19.5 V 691 – Steward Observatory, Kitt Peak-Spacewatch MPS 297891
2009 09 29.26066 00 53 16.09 +01 46 58.3 19.3 V 691 – Steward Observatory, Kitt Peak-Spacewatch MPS 297891
2009 10 13.22021 00 41 54.12 -00 12 41.8 19.5   704 – Lincoln Laboratory ETS, New Mexico MPS 298411
2009 10 13.23359 00 41 53.45 -00 12 48.2 19.4   704 – Lincoln Laboratory ETS, New Mexico MPS 298411
2009 10 13.24641 00 41 52.79 -00 12 54.3 19.6   704 – Lincoln Laboratory ETS, New Mexico MPS 298411
2009 10 13.27196 00 41 51.61 -00 13 06.2 20.2   704 – Lincoln Laboratory ETS, New Mexico MPS 298411
2009 10 17.19345 00 38 53.91 -00 42 23.5 18.9 V G96 – Mt. Lemmon Survey MPS 299509
2009 10 17.20074 00 38 53.55 -00 42 26.5 18.8 V G96 – Mt. Lemmon Survey MPS 299509
2009 10 17.20821 00 38 53.23 -00 42 29.7 18.9 V G96 – Mt. Lemmon Survey MPS 299509
2009 10 17.21565 00 38 52.87 -00 42 33.0 19.3 V G96 – Mt. Lemmon Survey MPS 299509
2009 10 26.20736 00 33 13.89 -01 36 51.0 19.6 V G96 – Mt. Lemmon Survey MPS 300816
2009 10 26.21486 00 33 13.64 -01 36 53.2 19.6 V G96 – Mt. Lemmon Survey MPS 300816
2009 10 26.22230 00 33 13.39 -01 36 55.2 19.6 V G96 – Mt. Lemmon Survey MPS 300816
2009 10 26.22978 00 33 13.14 -01 36 57.6 19.7 V G96 – Mt. Lemmon Survey MPS 300816
2011 02 10.41148 12 13 32.37 -01 09 14.1 20.6 V G96 – Mt. Lemmon Survey MPS 369609
2011 02 10.41913 12 13 32.19 -01 09 12.0 21.6 V G96 – Mt. Lemmon Survey MPS 369609
2011 02 10.42669 12 13 32.05 -01 09 10.0 21.7 V G96 – Mt. Lemmon Survey MPS 369609
2011 02 10.43425 12 13 31.87 -01 09 08.2 20.8 V G96 – Mt. Lemmon Survey MPS 369609
2011 03 01.38755 12 02 16.63 +00 40 27.6 19.8 R H15 – ISON-NM Observatory, Mayhill MPS 372087
2011 03 01.40113 12 02 15.93 +00 40 34.0 19.8 R H15 – ISON-NM Observatory, Mayhill MPS 372087
2011 03 01.40198 12 02 15.90 +00 40 35.6 20.9 V G96 – Mt. Lemmon Survey MPS 372087
2011 03 01.40710 12 02 15.61 +00 40 37.8 21.4 V G96 – Mt. Lemmon Survey MPS 372087
2011 03 01.41235 12 02 15.36 +00 40 40.7 20.3 V G96 – Mt. Lemmon Survey MPS 372087
2011 03 01.41466 12 02 15.23 +00 40 40.4 19.8 R H15 – ISON-NM Observatory, Mayhill MPS 372087
2011 03 01.41748 12 02 15.10 +00 40 42.1 21.1 V G96 – Mt. Lemmon Survey MPS 372087
2011 03 01.42851 12 02 14.51 +00 40 46.9 19.8 R H15 – ISON-NM Observatory, Mayhill MPS 372087
2011 03 10.19890 11 54 36.85 +01 47 43.6 20.8 V 691 – Steward Observatory, Kitt Peak-Spacewatch MPS 373508
2011 03 10.21657 11 54 35.82 +01 47 52.4 20.9 V 691 – Steward Observatory, Kitt Peak-Spacewatch MPS 373508
2011 03 10.23424 11 54 34.81 +01 48 01.0 21.1 V 691 – Steward Observatory, Kitt Peak-Spacewatch MPS 373508
2011 03 29.24702 11 36 52.95 +04 16 22.4 21.0 V G96 – Mt. Lemmon Survey MPS 377066
2011 03 29.25229 11 36 52.66 +04 16 24.8 21.2 V G96 – Mt. Lemmon Survey MPS 377066
2011 03 29.25743 11 36 52.34 +04 16 28.2 20.2 V G96 – Mt. Lemmon Survey MPS 377066
2011 03 29.26266 11 36 52.12 +04 16 29.1 21.1 V G96 – Mt. Lemmon Survey MPS 377066
2011 04 02.30072 11 33 28.350 +04 44 25.19 21.4 w F51 – Pan-STARRS 1, Haleakala MPS 378549
2011 04 02.31584 11 33 27.579 +04 44 31.29 21.6 w F51 – Pan-STARRS 1, Haleakala MPS 378549
2011 04 02.33204 11 33 26.765 +04 44 37.78 21.6 w F51 – Pan-STARRS 1, Haleakala MPS 378549
2011 04 02.34713 11 33 25.992 +04 44 43.64 21.5 w F51 – Pan-STARRS 1, Haleakala MPS 378549
2012 06 20.32884 20 28 45.87 -12 52 36.2 21.0 V 691 – Steward Observatory, Kitt Peak-Spacewatch MPS 427762
2012 06 20.34665 20 28 45.42 -12 52 37.9 20.7 V 691 – Steward Observatory, Kitt Peak-Spacewatch MPS 427762
2012 06 20.36492 20 28 45.16 -12 52 37.8 20.8 V 691 – Steward Observatory, Kitt Peak-Spacewatch MPS 427762
2014 01 03.12328 09 39 28.73 +09 37 30.6 21.3   J43 – Oukaimeden Observatory, Marrakech MPS 496422
2014 01 03.13612 09 39 28.36 +09 37 32.6 21.2   J43 – Oukaimeden Observatory, Marrakech MPS 496422
2014 01 03.14896 09 39 28.02 +09 37 34.5 21.8   J43 – Oukaimeden Observatory, Marrakech MPS 496422
2014 01 03.16183 09 39 27.62 +09 37 35.8 21.5   J43 – Oukaimeden Observatory, Marrakech MPS 496422
2014 01 21.36205 09 26 47.49 +10 52 16.3   691 – Steward Observatory, Kitt Peak-Spacewatch MPS 498305
2014 01 21.37976 09 26 46.47 +10 52 22.8   691 – Steward Observatory, Kitt Peak-Spacewatch MPS 498305
2014 01 21.39749 09 26 45.45 +10 52 28.3   691 – Steward Observatory, Kitt Peak-Spacewatch MPS 498305
2014 02 20.32877 08 56 49.656 +14 05 00.92 20.5 i F51 – Pan-STARRS 1, Haleakala MPS 502222
2014 02 20.34168 08 56 48.944 +14 05 05.82 20.4 i F51 – Pan-STARRS 1, Haleakala MPS 502222
2014 02 20.35455 08 56 48.220 +14 05 10.50 20.3 i F51 – Pan-STARRS 1, Haleakala MPS 502222
2014 02 20.36745 08 56 47.533 +14 05 15.40 20.6 i F51 – Pan-STARRS 1, Haleakala MPS 502222
2014 03 20.15792 08 43 02.92 +16 10 38.7 20.6 V G96 – Mt. Lemmon Survey MPS 508298
